Tracking 18980 objects as of 22-Feb-2018
HD Live streaming from Space Station
objects crossing your sky now

COSMOS 622

Track COSMOS 622 now!
10-day predictions
COSMOS 622 is classified as:


NORAD ID: 6990
Int'l Code: 1973-104F
Perigee: 1,375.6 km
Apogee: 1,492.2 km
Inclination: 74.0 °
Period: 114.4 minutes
Semi major axis: 7804 km
RCS: 0.684 m2 (medium)
Launch date: December 19, 1973
Source: Commonwealth of Independent States (former USSR) (CIS)
Launch site: PLESETSK MISSILE AND SPACE COMPLEX (PKMTR)
aabbcc
Your satellite tracking list
Your tracking list is empty




NASA's NSSDC Master Catalog

Two Line Element Set (TLE):
1 06990U 73104F   18053.07466043 -.00000020  00000-0 -16995-4 0  9994
2 06990  74.0293  37.6254 0074711 282.3437 139.4605 12.59069343 30730
Source of the keplerian elements: AFSPC